Location: Colorado Springs
(38.8340°N, 104.8210°W)
Time: 15:33:19
(UTC-07:00)

Tiangong 2 - Pass Details

Date: 16 October 2017
Orbit: 386 x 390 km, 42.8° (Epoch: 11 December)

Event Time Altitude Azimuth Distance (km) Brightness Sun altitude
Exits shadow 05:47:54 34° 323° (NW) 672 2.0 -16.7°
Maximum altitude 05:48:50 44° 9° (N) 547 1.8 -16.5°
Drops below altitude 10° 05:51:55 10° 84° (E) 1,421 5.3 -15.9°
Sets 05:54:03 0° 91° (E) 2,277 6.9 -15.5°
